User: anonymous   Login
Location: Eimen
(51.8766°N, 9.7806°E)
Time: 23:38:58
(UTC+00:00)
Language:

MOZ.5/SAFIR/RUBIN 5/SL-8 - Orbit

View from above orbital plane
View from above orbital plane
View from above satellite
View from above satellite

Ground track
Ground track

The orbit data is extracted from the following two-line orbital elements,

1 28898U 05043G   24204.39827085  .00001629  00000-0  33092-3 0  9999
2 28898  98.2578 332.7323 0018817 357.1403   2.9688 14.62387031621622
Epoch (UTC): 22 July 2024 09:33:30
Eccentricity: 0.0018817
inclination: 98.2578°
perigee height: 672 km
apogee height: 699 km
right ascension of ascending node: 332.7323°
argument of perigee: 357.1403°
revolutions per day: 14.62387031
mean anomaly at epoch: 2.9688°
orbit number at epoch: 62162

The dashed part of the orbit path shows where the satellite is in the earth's shadow,  

DLR